Time,TemperatureF,DewpointF,PressureIn,WindDirection,WindDirectionDegrees,WindSpeedMPH,WindSpeedGustMPH,Humidity,HourlyPrecipIn,Conditions,Clouds,dailyrainin,SoftwareType,DateUTC
2017-05-26 00:06:00,54.0,54.0,29.55,North,4,0.0,2.0,99,0.00,,,0.00,weatherlink.com 1.10,2017-05-26 04:06:00,
2017-05-26 00:21:00,53.8,54.0,29.55,North,1,0.0,1.0,99,0.00,,,0.00,weatherlink.com 1.10,2017-05-26 04:21:00,
2017-05-26 00:36:00,53.7,54.0,29.55,NE,56,0.0,1.0,99,0.00,,,0.00,weatherlink.com 1.10,2017-05-26 04:36:00,
2017-05-26 00:51:00,53.6,53.0,29.54,ENE,72,1.0,2.0,99,0.00,,,0.00,weatherlink.com 1.10,2017-05-26 04:51:00,
2017-05-26 01:06:00,53.4,53.0,29.53,East,86,0.0,2.0,99,0.00,,,0.00,weatherlink.com 1.10,2017-05-26 05:06:00,
2017-05-26 01:21:00,53.2,53.0,29.53,East,82,0.0,1.0,99,0.00,,,0.00,weatherlink.com 1.10,2017-05-26 05:21:00,
2017-05-26 01:36:00,53.2,53.0,29.52,NE,50,0.0,2.0,99,0.00,,,0.00,weatherlink.com 1.10,2017-05-26 05:36:00,
2017-05-26 01:51:00,53.0,53.0,29.52,NE,44,0.0,3.0,99,0.00,,,0.00,weatherlink.com 1.10,2017-05-26 05:51:00,
2017-05-26 02:06:00,52.9,53.0,29.52,NE,39,0.0,2.0,99,0.00,,,0.00,weatherlink.com 1.10,2017-05-26 06:06:00,
2017-05-26 02:21:00,52.8,53.0,29.52,ENE,62,0.0,1.0,99,0.00,,,0.00,weatherlink.com 1.10,2017-05-26 06:21:00,
2017-05-26 02:37:00,52.8,53.0,29.52,NE,40,0.0,0.0,99,0.00,,,0.00,weatherlink.com 1.10,2017-05-26 06:37:00,
2017-05-26 02:51:00,52.7,53.0,29.51,ENE,74,0.0,2.0,99,0.00,,,0.00,weatherlink.com 1.10,2017-05-26 06:51:00,
2017-05-26 03:06:00,52.5,52.0,29.50,ENE,65,0.0,1.0,99,0.00,,,0.00,weatherlink.com 1.10,2017-05-26 07:06:00,
2017-05-26 03:21:00,52.5,52.0,29.50,NNE,26,0.0,1.0,99,0.01,,,0.01,weatherlink.com 1.10,2017-05-26 07:21:00,
2017-05-26 03:36:00,52.4,52.0,29.49,WNW,287,0.0,0.0,99,0.01,,,0.01,weatherlink.com 1.10,2017-05-26 07:36:00,
2017-05-26 03:51:00,52.3,52.0,29.48,NNW,328,0.0,2.0,99,0.01,,,0.01,weatherlink.com 1.10,2017-05-26 07:51:00,
2017-05-26 04:06:00,52.3,52.0,29.48,NNW,345,0.0,3.0,99,0.01,,,0.01,weatherlink.com 1.10,2017-05-26 08:06:00,
2017-05-26 04:21:00,52.2,52.0,29.48,NW,314,0.0,2.0,99,0.00,,,0.01,weatherlink.com 1.10,2017-05-26 08:21:00,
2017-05-26 04:36:00,52.1,52.0,29.48,NNW,339,0.0,2.0,99,0.01,,,0.02,weatherlink.com 1.10,2017-05-26 08:36:00,
2017-05-26 04:51:00,52.1,52.0,29.48,North,354,0.0,1.0,99,0.02,,,0.03,weatherlink.com 1.10,2017-05-26 08:51:00,
2017-05-26 05:06:00,52.0,52.0,29.49,NNW,347,1.0,1.0,99,0.03,,,0.04,weatherlink.com 1.10,2017-05-26 09:06:00,
2017-05-26 05:21:00,52.0,52.0,29.50,North,352,0.0,1.0,99,0.03,,,0.04,weatherlink.com 1.10,2017-05-26 09:21:00,
2017-05-26 05:36:00,52.1,52.0,29.51,North,352,0.0,0.0,99,0.03,,,0.05,weatherlink.com 1.10,2017-05-26 09:36:00,
2017-05-26 05:51:00,52.1,52.0,29.51,North,352,0.0,0.0,99,0.03,,,0.06,weatherlink.com 1.10,2017-05-26 09:51:00,
2017-05-26 06:06:00,52.2,52.0,29.52,North,351,0.0,0.0,99,0.03,,,0.07,weatherlink.com 1.10,2017-05-26 10:06:00,
2017-05-26 06:21:00,52.3,52.0,29.53,North,352,0.0,0.0,99,0.05,,,0.09,weatherlink.com 1.10,2017-05-26 10:21:00,
2017-05-26 06:36:00,52.4,52.0,29.53,North,352,0.0,0.0,99,0.07,,,0.12,weatherlink.com 1.10,2017-05-26 10:36:00,
2017-05-26 06:51:00,52.6,52.0,29.53,North,352,0.0,0.0,99,0.08,,,0.14,weatherlink.com 1.10,2017-05-26 10:51:00,
2017-05-26 07:06:00,52.7,53.0,29.53,North,349,0.0,0.0,99,0.09,,,0.16,weatherlink.com 1.10,2017-05-26 11:06:00,
2017-05-26 07:21:00,52.8,53.0,29.53,NNW,345,0.0,2.0,99,0.09,,,0.18,weatherlink.com 1.10,2017-05-26 11:21:00,
2017-05-26 07:36:00,52.9,53.0,29.53,NNW,334,0.0,1.0,100,0.07,,,0.19,weatherlink.com 1.10,2017-05-26 11:36:00,
2017-05-26 07:51:00,53.2,53.0,29.53,North,350,0.0,1.0,100,0.06,,,0.20,weatherlink.com 1.10,2017-05-26 11:51:00,
2017-05-26 08:06:00,53.5,54.0,29.54,NNE,13,1.0,2.0,100,0.04,,,0.20,weatherlink.com 1.10,2017-05-26 12:06:00,
2017-05-26 08:21:00,53.7,54.0,29.54,North,349,0.0,1.0,100,0.03,,,0.21,weatherlink.com 1.10,2017-05-26 12:21:00,
2017-05-26 08:36:00,53.9,54.0,29.54,NNW,338,0.0,2.0,100,0.02,,,0.21,weatherlink.com 1.10,2017-05-26 12:36:00,
2017-05-26 08:51:00,54.3,54.0,29.54,NNW,346,2.0,3.0,100,0.01,,,0.21,weatherlink.com 1.10,2017-05-26 12:51:00,
2017-05-26 09:06:00,54.4,54.0,29.54,NNW,335,0.0,3.0,100,0.01,,,0.21,weatherlink.com 1.10,2017-05-26 13:06:00,
2017-05-26 09:21:00,54.9,55.0,29.54,North,356,1.0,3.0,99,0.01,,,0.22,weatherlink.com 1.10,2017-05-26 13:21:00,
2017-05-26 09:36:00,55.2,55.0,29.54,North,1,2.0,2.0,99,0.01,,,0.22,weatherlink.com 1.10,2017-05-26 13:36:00,
2017-05-26 09:51:00,55.1,55.0,29.54,North,357,0.0,2.0,99,0.02,,,0.23,weatherlink.com 1.10,2017-05-26 13:51:00,
2017-05-26 10:06:00,55.5,55.0,29.53,North,349,0.0,3.0,99,0.02,,,0.23,weatherlink.com 1.10,2017-05-26 14:06:00,
2017-05-26 10:21:00,55.9,56.0,29.53,WNW,300,1.0,2.0,99,0.02,,,0.24,weatherlink.com 1.10,2017-05-26 14:21:00,
2017-05-26 10:36:00,56.1,56.0,29.53,North,9,0.0,2.0,98,0.02,,,0.24,weatherlink.com 1.10,2017-05-26 14:36:00,
2017-05-26 10:52:00,56.8,56.0,29.53,North,360,0.0,0.0,98,0.01,,,0.24,weatherlink.com 1.10,2017-05-26 14:52:00,
2017-05-26 11:07:00,56.6,56.0,29.54,North,352,0.0,0.0,97,0.02,,,0.25,weatherlink.com 1.10,2017-05-26 15:07:00,
2017-05-26 11:22:00,56.9,56.0,29.54,North,352,0.0,0.0,98,0.01,,,0.25,weatherlink.com 1.10,2017-05-26 15:22:00,
2017-05-26 11:37:00,56.9,56.0,29.54,North,352,0.0,0.0,98,0.01,,,0.25,weatherlink.com 1.10,2017-05-26 15:37:00,
2017-05-26 11:52:00,57.1,57.0,29.55,North,352,0.0,0.0,98,0.01,,,0.25,weatherlink.com 1.10,2017-05-26 15:52:00,
2017-05-26 12:07:00,57.7,57.0,29.55,North,352,0.0,0.0,98,0.01,,,0.26,weatherlink.com 1.10,2017-05-26 16:07:00,
2017-05-26 12:22:00,58.1,57.0,29.55,NNW,343,0.0,0.0,97,0.02,,,0.27,weatherlink.com 1.10,2017-05-26 16:22:00,
2017-05-26 12:37:00,58.6,58.0,29.55,South,180,0.0,0.0,97,0.02,,,0.27,weatherlink.com 1.10,2017-05-26 16:37:00,
2017-05-26 12:52:00,58.4,58.0,29.55,ESE,121,0.0,1.0,97,0.02,,,0.28,weatherlink.com 1.10,2017-05-26 16:52:00,
2017-05-26 13:07:00,58.7,58.0,29.55,ESE,121,0.0,0.0,98,0.02,,,0.28,weatherlink.com 1.10,2017-05-26 17:07:00,
2017-05-26 13:22:00,59.0,59.0,29.55,ESE,121,0.0,0.0,98,0.01,,,0.28,weatherlink.com 1.10,2017-05-26 17:22:00,
2017-05-26 13:37:00,59.1,59.0,29.56,ESE,122,0.0,0.0,98,0.01,,,0.28,weatherlink.com 1.10,2017-05-26 17:37:00,
2017-05-26 13:52:00,59.1,59.0,29.56,ESE,121,0.0,0.0,98,0.00,,,0.28,weatherlink.com 1.10,2017-05-26 17:52:00,
2017-05-26 14:07:00,59.0,59.0,29.56,ESE,122,0.0,0.0,98,0.00,,,0.28,weatherlink.com 1.10,2017-05-26 18:07:00,
2017-05-26 14:22:00,59.1,59.0,29.57,ESE,121,0.0,0.0,98,0.01,,,0.29,weatherlink.com 1.10,2017-05-26 18:22:00,
2017-05-26 14:37:00,59.2,59.0,29.57,SSE,166,0.0,0.0,98,0.02,,,0.30,weatherlink.com 1.10,2017-05-26 18:37:00,
2017-05-26 14:52:00,58.8,58.0,29.57,SW,217,0.0,0.0,97,0.02,,,0.30,weatherlink.com 1.10,2017-05-26 18:52:00,
2017-05-26 15:07:00,58.3,58.0,29.58,SSW,210,0.0,0.0,98,0.07,,,0.35,weatherlink.com 1.10,2017-05-26 19:07:00,
2017-05-26 15:22:00,58.7,58.0,29.58,SW,215,0.0,1.0,98,0.07,,,0.36,weatherlink.com 1.10,2017-05-26 19:22:00,
2017-05-26 15:37:00,59.5,59.0,29.59,SSW,212,0.0,0.0,99,0.06,,,0.36,weatherlink.com 1.10,2017-05-26 19:37:00,
2017-05-26 15:52:00,60.1,60.0,29.59,North,355,0.0,0.0,98,0.06,,,0.36,weatherlink.com 1.10,2017-05-26 19:52:00,
2017-05-26 16:07:00,60.9,60.0,29.59,North,354,0.0,0.0,98,0.01,,,0.36,weatherlink.com 1.10,2017-05-26 20:07:00,
2017-05-26 16:22:00,61.3,61.0,29.60,NNW,339,1.0,4.0,97,0.00,,,0.36,weatherlink.com 1.10,2017-05-26 20:22:00,
2017-05-26 16:37:00,61.4,60.0,29.60,NNW,342,1.0,2.0,96,0.00,,,0.36,weatherlink.com 1.10,2017-05-26 20:37:00,
2017-05-26 17:07:00,61.2,59.0,29.61,NNW,330,0.0,4.0,93,0.00,,,0.36,weatherlink.com 1.10,2017-05-26 21:07:00,
2017-05-26 17:22:00,60.8,59.0,29.62,NNW,330,0.0,2.0,94,0.00,,,0.36,weatherlink.com 1.10,2017-05-26 21:22:00,
2017-05-26 17:37:00,60.5,59.0,29.63,NE,49,0.0,1.0,95,0.00,,,0.36,weatherlink.com 1.10,2017-05-26 21:37:00,
2017-05-26 17:52:00,59.5,58.0,29.64,NW,320,0.0,1.0,96,0.00,,,0.36,weatherlink.com 1.10,2017-05-26 21:52:00,
2017-05-26 18:07:00,58.5,57.0,29.65,North,353,0.0,0.0,96,0.00,,,0.36,weatherlink.com 1.10,2017-05-26 22:07:00,
2017-05-26 18:22:00,57.9,57.0,29.66,ENE,72,0.0,0.0,97,0.00,,,0.36,weatherlink.com 1.10,2017-05-26 22:22:00,
2017-05-26 18:37:00,57.7,57.0,29.66,NNW,347,0.0,0.0,97,0.00,,,0.36,weatherlink.com 1.10,2017-05-26 22:37:00,
2017-05-26 19:07:00,57.5,57.0,29.68,North,349,0.0,0.0,98,0.00,,,0.36,weatherlink.com 1.10,2017-05-26 23:07:00,
2017-05-26 19:23:00,57.2,57.0,29.68,NNW,348,0.0,0.0,98,0.00,,,0.36,weatherlink.com 1.10,2017-05-26 23:23:00,
2017-05-26 19:37:00,57.1,57.0,29.70,NNW,348,0.0,0.0,98,0.00,,,0.36,weatherlink.com 1.10,2017-05-26 23:37:00,
2017-05-26 19:53:00,56.9,56.0,29.70,North,349,0.0,0.0,98,0.00,,,0.36,weatherlink.com 1.10,2017-05-26 23:53:00,
2017-05-26 20:08:00,56.7,56.0,29.71,NNW,348,0.0,0.0,98,0.00,,,0.36,weatherlink.com 1.10,2017-05-27 00:08:00,
2017-05-26 20:23:00,56.5,56.0,29.71,NNW,348,0.0,0.0,98,0.00,,,0.36,weatherlink.com 1.10,2017-05-27 00:23:00,
2017-05-26 20:38:00,56.5,56.0,29.72,NNW,347,0.0,0.0,99,0.00,,,0.36,weatherlink.com 1.10,2017-05-27 00:38:00,
2017-05-26 20:53:00,56.3,56.0,29.73,NE,49,0.0,0.0,99,0.00,,,0.36,weatherlink.com 1.10,2017-05-27 00:53:00,
2017-05-26 21:08:00,56.1,56.0,29.74,NE,49,0.0,0.0,99,0.00,,,0.36,weatherlink.com 1.10,2017-05-27 01:08:00,
2017-05-26 21:23:00,55.9,56.0,29.74,NE,49,0.0,0.0,99,0.00,,,0.36,weatherlink.com 1.10,2017-05-27 01:23:00,
2017-05-26 21:38:00,55.4,55.0,29.75,NE,45,0.0,0.0,99,0.00,,,0.36,weatherlink.com 1.10,2017-05-27 01:38:00,
2017-05-26 21:53:00,55.0,55.0,29.76,NE,45,0.0,0.0,99,0.00,,,0.36,weatherlink.com 1.10,2017-05-27 01:53:00,
2017-05-26 22:08:00,54.8,55.0,29.77,NE,46,0.0,0.0,99,0.00,,,0.36,weatherlink.com 1.10,2017-05-27 02:08:00,
2017-05-26 22:23:00,54.6,54.0,29.77,NE,49,0.0,0.0,99,0.00,,,0.36,weatherlink.com 1.10,2017-05-27 02:23:00,
2017-05-26 22:38:00,54.4,54.0,29.78,NE,46,0.0,0.0,99,0.00,,,0.36,weatherlink.com 1.10,2017-05-27 02:38:00,